Location: Bratsk-Energetik
(56.3300°N, 101.7600°E)
Time: 21:44:07
(UTC+08:00)

ISS - Pass Details

Date: 06 May 2021
Orbit: 417 x 422 km, 51.6° (Epoch: 12 June)

Event Time Altitude Azimuth Distance (km) Brightness Sun altitude
Exits shadow 02:35:18 15° 142° (SE) 1,225 -1.7 -15.0°
Drops below altitude 10° 02:37:03 10° 111° (ESE) 1,508 -0.9 -14.9°
Sets 02:39:46 0° 88° (E) 2,377 0.4 -14.8°
